Flag for Canada Weather past 2 weeks in Sanikiluaq, Nunavut Territory, Canada

Now
36 °F

Overcast.


Feels Like: 31 °F
Forecast: 35 / 37 °F
Wind: 6 mph from Northeast

Location: Kuujjuarapik

Current Time: Oct 20, 2014 at 7:24:56 AM

Latest Report: Oct 20, 2014 at 7:00 AM


Visibility: 9 mi

Pressure: 29.95 "Hg

Humidity: 65%

Dew point: 25 °F

Location of SanikiluaqLocation

Historic Weather in Sanikiluaq — Graph

°F

Sanikiluaq temperature yesterday

Maximum temperature yesterday: 36 °F (at 12:00 PM)
Minimum temperature yesterday: 30 °F (at 4:58 AM)
Average temperature yesterday: 34 °F

Past Weeks' High & Low Weather Summary

 TemperatureHumidityPressure
High57 °F (Oct 7, 1:00 PM)100% (Oct 9, 12:02 AM)30.16 "Hg (Oct 9, 12:02 AM)
Low30 °F (Oct 19, 4:58 AM)58% (Oct 16, 1:00 PM)29.21 "Hg (Oct 9, 7:00 AM)
Average42 °F83%29.70 "Hg
* Reported Oct 5 6:00 AM — Oct 20 6:00 AM, Sanikiluaq, Weather by CustomWeather, © 2014

Note: Actual official high and low records may vary slightly from our data, if they occured in-between our weather recording intervals... More about our weather records

Advertising

Sanikiluaq weather history for previous 24 hours

 ConditionsComfort  
Time TempWeatherWind HumidityBarometerVisibility
6:00 AM
Oct 20
36 °FOvercast.3 mph70%29.94 "Hg9 mi
5:00 AM36 °FOvercast.5 mph65%29.93 "Hg9 mi
4:00 AM36 °FOvercast.2 mph70%29.93 "Hg9 mi
3:00 AM36 °FOvercast.5 mph65%29.93 "Hg9 mi
2:00 AM36 °FOvercast.3 mph65%29.92 "Hg9 mi
1:00 AM36 °FOvercast.3 mph65%29.92 "Hg9 mi
11:00 PM
Oct 19
36 °FOvercast.5 mph75%29.91 "Hg9 mi
10:00 PM36 °FOvercast.3 mph70%29.92 "Hg9 mi
9:00 PM36 °FOvercast.No wind70%29.92 "Hg9 mi
8:00 PM36 °FOvercast.3 mph70%29.92 "Hg9 mi
7:00 PM36 °FOvercast.3 mph70%29.92 "Hg9 mi
6:00 PM36 °FOvercast.6 mph70%29.91 "Hg9 mi
5:00 PM36 °FOvercast.7 mph70%29.90 "Hg9 mi
4:00 PM36 °FSunny.12 mph70%29.90 "Hg9 mi
3:00 PM36 °FSunny.12 mph75%29.90 "Hg9 mi
2:00 PM36 °FScattered clouds.9 mph75%29.90 "Hg9 mi
1:00 PM36 °FPartly sunny.9 mph75%29.90 "Hg9 mi
12:47 PM34 °FPartly sunny.7 mph75%29.91 "Hg9 mi
12:00 PM36 °FPassing clouds.8 mph70%29.91 "Hg9 mi
11:00 AM34 °FPartly sunny.8 mph81%29.92 "Hg9 mi
10:55 AM34 °FPartly sunny.6 mph81%29.92 "Hg9 mi
10:04 AM34 °FPartly sunny.9 mph81%29.92 "Hg9 mi
9:00 AM32 °FLight rain. Partly sunny.6 mph87%29.93 "Hg9 mi
8:00 AM32 °FLight snow. Mostly cloudy.8 mph93%29.93 "Hg6 mi
7:00 AM34 °FOvercast.7 mph81%29.92 "Hg9 mi
Weather by CustomWeather, © 2014

See weather overviewHow to use our weather pages